[[{"header":{"parameterUnit":"m.s-1","parameterCategory":1,"la1":30.2991,"la2":30.254,"lo1":-89.0895,"lo2":-89.0444,"dy":0.0017,"dx":0.0017,"nx":28,"ny":28,"refTime":"2024-08-22T09:00:00:Z","depth":0,"parameterNumber":2,"parameterNumberName":"U-component_of_WINDS"},"data":[0,0,0,0,0,0,0,0,0,0,0,0,0,0,0,0,0,0,0,0,0,0,0,0,0,0,0,0,0,0,0,0,0,0,0,0,0,0,0,0,0,0,0,0,0,0,0,0,0,0,0,0,0,0,0,0,0,0,-5.7999,-5.8,0,-5.8088,-5.8089,-5.809,-5.7977,-5.7973,-5.7969,-5.7965,-5.8055,-5.8061,-5.8067,0,0,0,0,0,0,0,0,0,0,0,0,0,-5.7731,-5.7736,-5.7999,-5.8,-5.8001,-5.8088,-5.8089,-5.809,-5.7978,-5.7973,-5.7968,-5.7963,-5.8053,-5.806,-5.8068,0,0,0,0,0,0,0,0,0,0,0,0,0,-5.7836,-5.7738,-5.7999,-5.7956,-5.7953,-5.8088,-5.8089,-5.8091,-5.7979,-5.7973,-5.7967,-5.7961,-5.8051,-5.806,-5.8069,-5.825,0,0,-5.8098,-5.8102,0,0,0,0,0,0,0,0,-5.7831,-5.7846,-5.7961,-5.7959,-5.7956,-5.8015,-5.8027,-5.8144,-5.798,-5.7969,-5.7965,-5.7958,-5.8047,-5.8056,-5.8086,-5.8255,-5.8258,-5.8098,-5.8104,-5.8108,-5.8111,0,0,0,0,0,0,0,-5.7823,-5.7842,-5.8034,-5.7963,-5.796,-5.7931,-5.794,-5.8049,-5.8041,-5.7969,-5.7961,-5.7974,-5.8044,-5.8078,-5.8088,-5.826,-5.8098,-5.8106,-5.8112,-5.8116,-5.8579,-5.8585,0,0,0,0,0,0,-5.7821,-5.7836,-5.8031,-5.8037,-5.7877,-5.7941,-5.795,-5.8002,-5.804,-5.804,-5.7979,-5.7968,-5.8065,-5.8077,-5.809,-5.8302,-5.8108,-5.8117,-5.8122,-5.8572,-5.858,-5.8588,0,0,0,0,0,0,-5.7816,-5.784,-5.8028,-5.7935,-5.7956,-5.7953,-5.8012,-5.8007,-5.804,-5.8047,-5.8045,-5.8014,-5.806,-5.8077,-5.8211,-5.8303,-5.8121,-5.8129,-5.8564,-5.8575,-5.8584,-5.8729,0,0,0,0,0,0,-5.7809,-5.7838,-5.7907,-5.7937,-5.7962,-5.8147,-5.8018,-5.8014,-5.8057,-5.8044,-5.808,-5.808,-5.8057,-5.8198,-5.822,-5.8313,-5.8137,-5.8556,-5.8569,-5.8581,-5.8715,-5.8742,-5.8765,0,0,0,0,0,-5.78,-5.7945,-5.7911,-5.7935,-5.8048,-5.8153,-5.8167,-5.8138,-5.8065,-5.8133,-5.8138,-5.8078,-5.8291,-5.8212,-5.8237,-5.8334,-5.855,-5.8565,-5.858,-5.8704,-5.8737,-5.8765,0,0,0,0,0,0,-5.7925,-5.7948,-5.7911,-5.807,-5.8111,-5.8134,-5.8219,-5.8174,-5.8235,-5.822,-5.8182,-5.8191,-5.8333,-5.8348,-5.8259,-5.851,-5.8408,-5.8429,-5.8494,-5.8526,-5.855,-5.8541,-5.8145,0,0,0,0,0,-5.7972,-5.8056,-5.8071,-5.821,-5.8232,-5.8223,-5.8268,-5.8242,-5.8282,-5.8298,-5.8312,-5.8353,-5.8428,-5.8479,-5.8549,-5.8719,-5.8724,-5.8798,-5.8823,-5.8844,-5.886,-5.8949,-5.8981,-5.8637,-5.8637,-5.8637,0,0,-5.8068,-5.8091,-5.8146,-5.8236,-5.8264,-5.835,-5.8238,-5.8335,-5.8398,-5.8313,-5.8438,-5.8451,-5.8494,-5.8646,-5.8714,-5.8662,-5.8957,-5.8863,-5.8879,-5.8885,-5.8967,-5.9,-5.9029,-5.8647,-5.8646,-5.8644,0,0,-5.8287,-5.8315,-5.8431,-5.8462,-5.8507,-5.85,-5.8528,-5.8559,-5.8563,-5.869,-5.8627,-5.8703,-5.8835,-5.8867,-5.8901,-5.9134,-5.908,-5.9159,-5.9287,-5.9373,-5.94,-5.9424,-5.9503,-5.9532,-5.9176,-5.9177,-5.9177,0,-5.84,-5.8528,-5.8497,-5.8598,-5.8638,-5.8567,-5.8684,-5.8716,-5.8782,-5.8811,-5.8754,-5.8917,-5.8941,-5.9098,-5.9155,-5.9187,-5.9216,-5.9151,-5.9399,-5.9423,-5.9444,-5.9519,-5.9549,-5.9186,-5.9185,-5.9184,-5.9183,0,-5.8664,-5.8754,-5.8843,-5.8907,-5.8959,-5.9068,-5.9053,-5.9109,-5.908,-5.9079,-5.9208,-5.9235,-5.9308,-5.9345,-5.9318,-5.9499,-5.9465,-5.9405,-5.93,-5.9486,-5.9555,-5.9584,-5.9198,-5.9195,-5.9192,-5.919,0,0,-5.8959,-5.9006,-5.9039,-5.9066,-5.9111,-5.918,-5.9286,-5.9358,-5.9405,-5.9454,-5.954,-5.9654,-5.9598,-5.9637,-5.9614,-5.9691,-5.9869,-5.962,-5.962,-5.9661,-6.0065,-6.0106,-6.014,-5.9836,-5.9842,-5.9846,-6.006,0,-5.9174,-5.9356,-5.9332,-5.9506,-5.9587,-5.9523,-5.9615,-5.9652,-5.9655,-5.9724,-5.9728,-5.9808,-5.973,-5.9753,-5.9826,-5.9832,-5.9949,-5.9817,-5.9913,-5.9917,-5.9898,-6.0177,-6.0221,-6.0421,-6.0088,-6.0092,-6.0096,0,-5.9448,-5.9505,-5.9688,-5.9718,-5.9752,-5.9835,-5.9898,-5.9966,-6.0007,-6.0004,-6.0049,-6.0012,-6.0117,-6.0016,-6.0159,-6.007,-6.0109,-6.0118,-6.0125,-6.0128,-6.0013,-6.0183,-6.0485,-6.0513,-6.0139,-6.0136,-6.0133,0,-5.9639,-5.9763,-5.9887,-5.9913,-5.9954,-6.0013,-6.0033,-6.0068,-6.0113,-6.017,-6.0197,-6.0267,-6.0303,-6.0357,-6.0339,-6.0268,-6.0486,-6.0383,-6.0483,-6.0484,-6.0527,-6.0523,-6.0834,-6.0562,-6.0562,-6.0561,-6.0561,0,-5.9877,-5.999,-5.9973,-6.0049,-6.0173,-6.0146,-6.027,-6.0282,-6.0314,-6.0391,-6.0341,-6.0414,-6.0389,-6.0461,-6.0449,-6.0568,-6.0586,-6.0585,-6.0579,-6.0586,-6.0585,-6.0606,-6.059,-6.0569,-6.0567,-6.0566,-6.0565,0,-6.0109,-6.0103,-6.0233,-6.0262,-6.0271,-6.0361,-6.0385,-6.0456,-6.0457,-6.0554,-6.0576,-6.0577,-6.0658,-6.0648,-6.074,-6.0732,-6.0878,-6.0858,-6.0863,-6.0857,-6.0955,-6.0944,-6.1286,-6.1327,-6.1034,-6.1037,-6.1039,0,-6.0259,-6.0344,-6.0382,-6.0429,-6.0453,-6.0531,-6.0576,-6.0554,-6.0603,-6.0657,-6.0721,-6.0799,-6.0859,-6.0993,-6.1001,-6.1071,-6.1049,-6.1165,-6.1059,-6.1063,-6.1045,-6.1038,-6.1045,-6.1183,-6.1187,-6.1189,-6.1192,0,-6.0524,-6.0517,-6.0584,-6.065,-6.0705,-6.0757,-6.0803,-6.0845,-6.0828,-6.0886,-6.0968,-6.1015,-6.1109,-6.1186,-6.1252,-6.1272,-6.1228,-6.1226,-6.1252,-6.1256,-6.1253,-6.1251,-6.0914,-6.1216,-6.1214,-6.1212,-6.1211,-6.121,-6.0716,-6.0787,-6.0824,-6.09,-6.0933,-6.0978,-6.1045,-6.1055,-6.1123,-6.1197,-6.1181,-6.1274,-6.1313,-6.1397,-6.1425,-6.1497,-6.1455,-6.1494,-6.1502,-6.1511,-6.152,-6.1248,-6.151,-6.1509,-6.1509,-6.1508,-6.1508,0,-6.0973,-6.0995,-6.1065,-6.1131,-6.1191,-6.1148,-6.1197,-6.1249,-6.1332,-6.1372,-6.1433,-6.1528,-6.1603,-6.1618,-6.1689,-6.1744,-6.1726,-6.1763,-6.1755,-6.176,-6.1556,-6.1524,-6.1776,-6.1776,-6.1776,-6.1776,-6.1776,-6.1776,-6.1114,-6.1231,-6.1229,-6.1363,-6.1383,-6.1473,-6.1505,-6.1545,-6.1577,-6.1685,-6.1747,-6.1757,-6.1787,-6.1861,-6.1927,-6.193,-6.1956,-6.2,-6.1995,-6.1802,-6.1775,-6.1749,-6.1718,-6.2007,-6.2008,-6.2192,-6.2194,-6.2195]},{"header":{"parameterUnit":"m.s-1","parameterCategory":1,"la1":30.2991,"la2":30.254,"lo1":-89.0895,"lo2":-89.0444,"dy":0.0017,"dx":0.0017,"nx":28,"ny":28,"refTime":"2024-08-22T09:00:00:Z","depth":0,"parameterNumber":3,"parameterNumberName":"V-component_of_WINDS"},"data":[0,0,0,0,0,0,0,0,0,0,0,0,0,0,0,0,0,0,0,0,0,0,0,0,0,0,0,0,0,0,0,0,0,0,0,0,0,0,0,0,0,0,0,0,0,0,0,0,0,0,0,0,0,0,0,0,0,0,-0.172,-0.1721,0,-0.1752,-0.1753,-0.1753,-0.1768,-0.1768,-0.1768,-0.1768,-0.18,-0.1801,-0.1802,0,0,0,0,0,0,0,0,0,0,0,0,0,-0.1671,-0.1672,-0.172,-0.1721,-0.1721,-0.1752,-0.1753,-0.1753,-0.1768,-0.1768,-0.1768,-0.1768,-0.18,-0.1801,-0.1802,0,0,0,0,0,0,0,0,0,0,0,0,0,-0.1697,-0.1673,-0.172,-0.1732,-0.1734,-0.1752,-0.1753,-0.1753,-0.1768,-0.1768,-0.1768,-0.1768,-0.1799,-0.1801,-0.1802,-0.1811,0,0,-0.1806,-0.1806,0,0,0,0,0,0,0,0,-0.1695,-0.1699,-0.173,-0.1731,-0.1733,-0.1756,-0.1747,-0.1772,-0.1768,-0.1755,-0.1768,-0.1768,-0.1785,-0.1788,-0.1794,-0.1812,-0.1814,-0.1806,-0.1807,-0.1807,-0.1808,0,0,0,0,0,0,0,-0.1694,-0.1697,-0.1733,-0.1731,-0.1732,-0.1736,-0.1739,-0.1752,-0.177,-0.1756,-0.1757,-0.1761,-0.1786,-0.1792,-0.1795,-0.1814,-0.1806,-0.1807,-0.1808,-0.1808,-0.1841,-0.1841,0,0,0,0,0,0,-0.169,-0.1696,-0.1732,-0.1734,-0.1714,-0.1737,-0.1741,-0.1749,-0.177,-0.1773,-0.1761,-0.1761,-0.179,-0.1793,-0.1796,-0.1807,-0.1807,-0.1809,-0.1809,-0.184,-0.1841,-0.1841,0,0,0,0,0,0,-0.1689,-0.1693,-0.1731,-0.1715,-0.172,-0.1738,-0.1746,-0.1749,-0.1756,-0.1773,-0.1776,-0.1764,-0.179,-0.1794,-0.1807,-0.1809,-0.1809,-0.181,-0.184,-0.1841,-0.1841,-0.183,0,0,0,0,0,0,-0.1687,-0.1693,-0.1697,-0.1715,-0.1721,-0.1741,-0.1747,-0.175,-0.1758,-0.1759,-0.1777,-0.178,-0.1791,-0.1805,-0.1808,-0.181,-0.1811,-0.184,-0.184,-0.1841,-0.183,-0.183,-0.1829,0,0,0,0,0,-0.1686,-0.1692,-0.1697,-0.1701,-0.1726,-0.1741,-0.1745,-0.1757,-0.1758,-0.1762,-0.1773,-0.178,-0.1808,-0.1806,-0.181,-0.1813,-0.184,-0.184,-0.1841,-0.1831,-0.183,-0.1829,0,0,0,0,0,0,-0.1674,-0.1695,-0.17,-0.1713,-0.1725,-0.1744,-0.1749,-0.1756,-0.1768,-0.1768,-0.1782,-0.1786,-0.1797,-0.1806,-0.1804,-0.1822,-0.1825,-0.1825,-0.1816,-0.1815,-0.1815,-0.1812,-0.1813,0,0,0,0,0,-0.1673,-0.1683,-0.1701,-0.1711,-0.1717,-0.1732,-0.1739,-0.1747,-0.176,-0.1765,-0.1778,-0.179,-0.1801,-0.1809,-0.182,-0.1832,-0.1835,-0.1835,-0.1835,-0.1834,-0.1835,-0.1841,-0.1841,-0.1841,-0.1841,-0.1841,0,0,-0.167,-0.1683,-0.1689,-0.1709,-0.172,-0.173,-0.1736,-0.1747,-0.1755,-0.1767,-0.178,-0.1789,-0.1804,-0.1815,-0.1821,-0.1823,-0.1836,-0.1834,-0.1834,-0.1835,-0.1841,-0.1841,-0.1841,-0.1841,-0.1841,-0.1841,0,0,-0.1672,-0.1683,-0.1692,-0.1702,-0.1718,-0.1727,-0.1729,-0.1747,-0.1753,-0.1766,-0.1775,-0.1784,-0.1804,-0.1814,-0.1822,-0.1826,-0.1832,-0.1829,-0.1826,-0.1832,-0.1832,-0.1832,-0.1833,-0.1833,-0.1829,-0.1829,-0.1829,0,-0.1667,-0.1684,-0.1696,-0.1706,-0.1714,-0.1725,-0.1734,-0.1743,-0.1762,-0.1767,-0.1769,-0.1793,-0.1804,-0.1818,-0.1819,-0.1824,-0.1827,-0.1827,-0.1831,-0.1831,-0.1831,-0.1832,-0.1832,-0.1829,-0.1829,-0.1829,-0.1829,0,-0.1677,-0.1688,-0.1693,-0.171,-0.1719,-0.1729,-0.1742,-0.1749,-0.1756,-0.1765,-0.1778,-0.1791,-0.1805,-0.1809,-0.1816,-0.1824,-0.1824,-0.1828,-0.1831,-0.183,-0.1832,-0.1832,-0.1828,-0.1828,-0.1829,-0.1829,0,0,-0.1672,-0.1695,-0.1697,-0.1705,-0.1722,-0.1731,-0.1741,-0.1754,-0.176,-0.1772,-0.178,-0.1796,-0.18,-0.1808,-0.1816,-0.1821,-0.1822,-0.1824,-0.1825,-0.1823,-0.1831,-0.1828,-0.1828,-0.1827,-0.1827,-0.1827,-0.183,0,-0.1676,-0.1694,-0.1705,-0.1718,-0.1728,-0.1738,-0.1746,-0.1758,-0.1766,-0.1776,-0.1786,-0.1796,-0.1801,-0.1806,-0.1811,-0.1821,-0.1824,-0.1821,-0.1834,-0.1834,-0.183,-0.1829,-0.1826,-0.1828,-0.183,-0.183,-0.183,0,-0.1683,-0.1694,-0.1708,-0.1724,-0.1729,-0.1736,-0.1749,-0.1758,-0.1771,-0.1777,-0.1786,-0.1793,-0.1803,-0.1805,-0.1819,-0.1817,-0.1823,-0.1828,-0.1829,-0.183,-0.1832,-0.183,-0.1829,-0.1829,-0.1831,-0.1831,-0.1831,0,-0.1677,-0.1696,-0.1707,-0.1714,-0.1732,-0.1737,-0.1745,-0.1757,-0.1765,-0.1776,-0.178,-0.1793,-0.1799,-0.1808,-0.1819,-0.182,-0.1831,-0.1834,-0.1836,-0.1836,-0.1838,-0.1838,-0.1837,-0.1842,-0.1842,-0.1842,-0.1842,0,-0.168,-0.1688,-0.1705,-0.1712,-0.1721,-0.1733,-0.1742,-0.1751,-0.1761,-0.177,-0.1779,-0.1787,-0.18,-0.1809,-0.1818,-0.1827,-0.183,-0.1835,-0.1837,-0.1834,-0.1833,-0.1838,-0.1838,-0.1842,-0.1842,-0.1842,-0.1842,0,-0.1676,-0.1688,-0.17,-0.1716,-0.172,-0.1726,-0.174,-0.1747,-0.1756,-0.1766,-0.1769,-0.1783,-0.1794,-0.1805,-0.182,-0.1825,-0.1835,-0.1838,-0.183,-0.1832,-0.1833,-0.1832,-0.1835,-0.1836,-0.184,-0.184,-0.184,0,-0.1677,-0.1684,-0.17,-0.1706,-0.1714,-0.1724,-0.1731,-0.1743,-0.175,-0.1764,-0.1769,-0.178,-0.179,-0.1807,-0.1818,-0.183,-0.1833,-0.1833,-0.1835,-0.1831,-0.1832,-0.1832,-0.1832,-0.1832,-0.1832,-0.1832,-0.1832,0,-0.1677,-0.1683,-0.1693,-0.1705,-0.1713,-0.1723,-0.1733,-0.1738,-0.1751,-0.1759,-0.177,-0.1777,-0.1792,-0.1803,-0.1816,-0.1823,-0.183,-0.1831,-0.1832,-0.1829,-0.1825,-0.1827,-0.1829,-0.1831,-0.1832,-0.1832,-0.1832,-0.1832,-0.1676,-0.1682,-0.1694,-0.1705,-0.1714,-0.1723,-0.173,-0.1739,-0.1749,-0.1762,-0.1768,-0.1779,-0.1791,-0.1808,-0.1815,-0.1824,-0.1826,-0.1827,-0.1827,-0.1828,-0.1827,-0.1823,-0.1826,-0.1826,-0.1826,-0.1826,-0.1826,0,-0.1677,-0.1685,-0.1695,-0.1708,-0.1717,-0.1722,-0.1733,-0.174,-0.1749,-0.176,-0.1769,-0.1781,-0.1792,-0.1803,-0.1815,-0.1819,-0.1822,-0.1822,-0.1821,-0.1823,-0.1824,-0.1822,-0.1819,-0.1819,-0.1819,-0.1819,-0.1819,-0.1819,-0.1678,-0.1688,-0.1694,-0.1709,-0.1717,-0.1728,-0.1734,-0.1742,-0.175,-0.1764,-0.1772,-0.178,-0.1791,-0.1802,-0.1812,-0.1815,-0.1819,-0.1817,-0.1821,-0.1822,-0.1823,-0.1823,-0.1822,-0.1818,-0.1818,-0.1819,-0.1819,-0.1819]}]]